Location: Follega
(52.8850°N, 5.7362°E)
Time: 10:02:03
(UTC+00:00)

CARTOSAT-1 - Pass Details

Date: 01 October 2020
Orbit: 616 x 619 km, 97.8° (Epoch: 20 October)

Event Time Altitude Azimuth Distance (km) Brightness Sun altitude
Exits shadow 20:53:58 25° 352° (N) 1,269 5.5 -31.6°
Drops below altitude 10° 20:55:48 10° 349° (NNW) 1,994 6.8 -31.8°
Sets 20:58:00 0° 347° (NNW) 2,904 7.8 -32.0°
